Regional Weather Roundup
Issued by NWS Grand Forks, ND

Home | Current Version | Previous Version | Text Only | Print | Product List | Glossary On
Versions: 1 2 3 4 5 6 7 8 9 10 11 12 13 14 15 16 17 18 19 20 21 22 23 24 25 26 27 28 29 30 31 32 33 34 35 36 37 38 39 40 41 42 43 44 45 46 47 48 49 50
000
ASUS43 KFGF 251331
RWRFGF
PRAIRIE TO PINES  WEATHER ROUNDUP
NATIONAL WEATHER SERVICE EASTERN NORTH DAKOTA/GRAND FORKS ND
800 AM CDT SAT APR 25 2015

 **SATELLITE DATA USED TO AUGMENT SKY COVER AT AUTOMATED STATIONS**
 *****  WEATHER ACROSS EASTERN NORTH DAKOTA  *****

CITY           SKY/WX    TMP DP  RH WIND       PRES   REMARKS
GRAND FORKS    CLOUDY    44  32  62 E10       29.87R
GRAND FRKS AFB CLOUDY    43  32  65 SE9       29.87R
GRAND FRKS NWS   N/A     43 N/A N/A E15         N/A
DEVILS LAKE    CLOUDY    43  34  70 E12       29.85R
FARGO          CLOUDY    44  37  76 E7        29.84S
WAHPETON ARPT  CLOUDY    43  37  81 E9        29.83R
$$

 ***** WEATHER ACROSS CENTRAL AND WESTERN NORTH DAKOTA  *****

CITY           SKY/WX    TMP DP  RH WIND       PRES   REMARKS
BISMARCK       CLOUDY    44  41  89 E14       29.78R
MINOT          CLOUDY    38  36  92 CALM      29.81R FOG
JAMESTOWN      CLOUDY    41  38  89 E9        29.81R FOG
MINOT AFB      CLOUDY    39  39 100 SE8       29.80S FOG
GARRISON         N/A     43  41  93 SE12      29.77S
WILLISTON      CLOUDY    46  41  82 SE12      29.73S
DICKINSON      FOG       42  40  92 SE15      29.71R VSB 1/4
HETTINGER      FOG       41  40  96 E13       29.72F VSB 1/4
$$

 *****  OTHER AIRPORT OBSERVATIONS IN OUR AREA  *****

CITY           SKY/WX    TMP DP  RH WIND       PRES   REMARKS
WALHALLA       CLOUDY    32  32 100 NW3       29.92S
GRAFTON AIRPOR PTSUNNY   43  34  70 E10       29.90S
VALLEY CITY AR CLOUDY    41  41 100 E9        29.83R
CANDO          CLOUDY    41  36  81 E12       29.86S
CAVALIER APRT  CLOUDY    39  32  75 N3        29.91R
GWINNER        CLOUDY    43  43 100 E15       29.81S VSB 1
ROLLA          CLOUDY    39  37  93 SE10      29.86S
 ***** THE ABOVE OBSERVATIONS ARE NON NWS ARE NOT QUALITY
       CONTROLLED AND MAY MIS-REPORT RAIN FOR SNOW...
$$

  *****  WEATHER ACROSS NORTHERN MINNESOTA  *****

CITY           SKY/WX    TMP DP  RH WIND       PRES   REMARKS
FLAG ISLAND    CLOUDY    39  25  56 E5        29.97R
WARROAD        CLOUDY    37  28  70 E6        29.96R
ROSEAU         CLOUDY    41  25  52 E9        29.94R
HALLOCK        CLOUDY    45  30  57 E12       29.91R
THF RVR FALLS  PTSUNNY   43  27  52 E9        29.90R
BAUDETTE       MOSUNNY   39  21  48 E12       29.94S
WASKISH        CLOUDY    39  23  52 CALM      29.94R
CROOKSTON      CLOUDY    43  30  61 E8        29.89R
$$
  *****  WEATHER ACROSS CENTRAL AND WEST MINNESOTA  *****

CITY           SKY/WX    TMP DP  RH WIND       PRES   REMARKS
FOSSTON        PTSUNNY   39  27  60 E6        29.88S
BEMIDJI        CLOUDY    39  28  62 E9        29.90R
PARK RAPIDS    PTSUNNY   40  30  67 E10       29.86R
ELBOW LAKE     CLOUDY    41  39  92 E13       29.82R
WADENA         CLOUDY    39  32  75 E8        29.84S
DETROIT LAKES  CLOUDY    41  34  75 SE9       29.86R
MOORHEAD       CLOUDY    43  36  75 E8        29.86R
FERGUS FALLS   CLOUDY    43  34  70 E10G16    29.85R
MORRIS MN      PTSUNNY   43  41  93 E16       29.80R FOG
STAPLES        CLOUDY    39  32  75 E7        29.86S
$$
  *****  WEATHER ELSEWHERE ACROSS MINNESOTA  *****

CITY           SKY/WX    TMP DP  RH WIND       PRES   REMARKS
DULUTH         CLOUDY    34  24  67 E10       29.93S
INTRNTL FALLS  CLOUDY    38  18  44 E7        29.97S
ELY            CLOUDY    37   7  28 E7        29.98S
CLOQUET        CLOUDY    36  27  69 E12G18    29.93R
WHEATON        CLOUDY    39  39 100 E10       29.83R FOG
BRAINERD       CLOUDY    39  31  72 E8        29.88R
HIBBING        CLOUDY    38  20  48 SE7       29.94R
ALEXANDRIA     CLOUDY    40  37  89 E14       29.82R
SAINT CLOUD    CLOUDY    43  36  76 E13       29.84R
MINNEAPOLIS    CLOUDY    43  37  79 E10       29.83R
$$

  *****  WEATHER ACROSS SOUTH DAKOTA  *****

CITY           SKY/WX    TMP DP  RH WIND       PRES   REMARKS
SIOUX FALLS    CLOUDY    45  41  86 E20       29.70R
BROOKINGS      CLOUDY    43  39  87 E17G24    29.74R
WATERTOWN      CLOUDY    42  40  92 E10G20    29.73R FOG
HURON          CLOUDY    47  44  90 E9        29.72R FOG
SISSETON         N/A     43  43 100 SE12      29.78R
ABERDEEN       CLOUDY    44  42  93 E12       29.77R FOG
MITCHELL       CLOUDY    48  46  93 E8        29.70R FOG
PIERRE         FOG       45  44  97 NE18      29.69R VSB 1
MOBRIDGE       CLOUDY    45  43  93 E15       29.72R FOG
RAPID CITY     FOG       42  42 100 W3        29.70S VSB 1/4
$$

  *****  SOME WEATHER IN NEARBY STATES *****

CITY           SKY/WX    TMP DP  RH WIND       PRES   REMARKS
GLASGOW MT     CLOUDY    48  38  68 NW20      29.63R
GREAT FALLS MT CLOUDY    37  34  89 SW13      29.77S
CHEYENNE WY    CLEAR     40  30  67 NW5       29.75R
SCOTTSBLUFF NE SUNNY     42  32  67 NW3       29.70R
OMAHA NE       LGT RAIN  50  47  89 N9        29.55R
DES MOINES IA  LGT RAIN  45  42  89 NE17      29.60R FOG
DAVENPORT IA   LGT RAIN  43  40  89 E15       29.68F FOG
CHICAGO IL     LGT RAIN  44  38  79 E12G18    29.80R
EAU CLAIRE WI  CLOUDY    41  27  57 E12       29.87S
LA CROSSE WI   CLOUDY    42  36  79 NE7       29.83S
$$

  *****  SOME NATIONAL WEATHER *****

CITY           SKY/WX    TMP DP  RH WIND       PRES   REMARKS
LA GUARDIA NY  MOSUNNY   42  23  46 NW13      29.88F
RALEIGH NC     CLOUDY    53  44  71 CALM      29.93R
ATLANTA GA     LGT RAIN  60  57  89 SE9G16    29.85F FOG
NEW ORLEANS LA MOSUNNY   77  73  87 SW12      29.82F FOG
OKLAHOMA CITY  SUNNY     55  48  77 S3        29.64R
ALBUQUERQUE NM PTCLDY    42  35  76 SE8       29.97S
SALT LAKE CITY MOCLDY    43  38  82 CALM      29.81F
LOS ANGELES CA MOCLDY    57  51  80 CALM      29.98S
BOISE ID       CLOUDY    42  34  73 CALM      29.80S
SEATTLE WA     LGT RAIN  42  38  85 E6        29.92S
$$

*** WEATHER ACROSS MANITOBA...SASKATCHEWAN AND ONTARIO ***
                ***ONTARIO***

CITY           SKY/WX    TMP DP  RH WIND       PRES   REMARKS
GERALDTON      MOSUNNY   28  19  69 VRB2      30.11R
THUNDER BAY    PTSUNNY   36  16  44 VRB2      30.08R
SIOUX LOOKOUT  PTSUNNY   34  19  55 SE5       30.05R
TORONTO        MOSUNNY   37  23  56 N7        29.98F
BIG TROUT LK   SUNNY     21  16  79 E3        30.18
PICKLE LAKE    MOSUNNY   27  18  69 E5        30.11R WCI  21
DRYDEN         CLOUDY    36  27  69 E6        30.02R
KENORA         PTSUNNY   39  21  48 E9        29.98R
$$
                *** MANITOBA***

CITY           SKY/WX    TMP DP  RH WIND       PRES   REMARKS
BRANDON        MOSUNNY   36  32  87 E7        29.91R
DAUPHIN        MOSUNNY   37  32  81 SE7       29.93R
ISLAND LAKE    SUNNY     28  14  54 SE9       30.08R WCI  20
PILOT MOUND      N/A     36  32  87 E8          N/A
THE PAS        LGT SNOW  27  25  93 N6        30.01R FOG     WCI  20
THOMPSON       LGT SNOW  25  23  93 NE7       30.06R WCI  17
WINNIPEG       PTSUNNY   39  28  65 E8        29.95R
LYNN LAKE      SUNNY     19  12  73 N3        30.10R
CHURCHILL      CLOUDY    18  12  79 S8        30.25  WCI   7
GILLAM         CLOUDY    23  18  80 NE6       30.16R WCI  16
$$
                ***SASKATCHEWAN***

CITY           SKY/WX    TMP DP  RH WIND       PRES   REMARKS
ESTEVAN        CLOUDY    41  39  93 E16G22    29.78R FOG
KINDERSLEY     CLOUDY    30  28  93 NE22      29.78R WCI  17
LLOYDMINSTER   CLOUDY    30  23  74 NE15G25   29.89R WCI  19
PRINCE ALBERT  CLOUDY    27  21  80 NE14      29.97R WCI  15
REGINA         LGT RAIN  45  43  93 E20       29.74R FOG
YORKTON        CLOUDY    43  37  81 E10       29.86R
N. BATTLEFORD  CLOUDY    28  25  86 E13G18    29.92R WCI  18
LA RONGE       MOSUNNY   23  18  80 NE7       30.09R WCI  15
SASKATOON      CLOUDY    28  25  86 NE17G30   29.88R WCI  16
SWIFT CURRENT  LGT RAIN  36  34  93 N10       29.73R FOG
$$
NOTE: THESE ARE AUTOMATED STATIONS WITH LIMITED QUALITY CONTROL
      "FAIR" INDICATES FEW OR NO CLOUDS BELOW 12,000 FEET WITH NO
      SIGNIFICANT WEATHER AND/OR OBSTRUCTIONS TO VISIBILITY.
      SKY/WX - SKY CONDITION AND SIGNIFICANT WEATHER.
      TMP - AIR TEMPERATURE.    DP   - DEWPOINT TEMPERATURE.
      RH  - RELATIVE HUMIDITY.  PRES - PRESSURE.
      HX  - HEAT INDEX.         WCI  - WIND CHILL INDEX.
$



USA.gov is the U.S. government's official web portal to all federal, state and local government web resources and services.